Tracking 28790 objects as of 18-Apr-2024
HD Live streaming from Space Station
objects crossing your sky now

ARIANE 1 DEB

Track ARIANE 1 DEB now!
10-day predictions


NORAD ID: 39107
Int'l Code: 1986-019VV
Perigee: 759.0 km
Apogee: 985.0 km
Inclination: 98.7 °
Period: 102.2 minutes
Semi major axis: 7242 km
RCS: 0.0163 m2 (small)
Launch date: February 22, 1986
Source: France (FR)
Launch site: FRENCH GUIANA (FRGUI)

Note: This is SATELLITE DEBRIS
Your satellite tracking list
Your tracking list is empty




NASA's NSSDC Master Catalog

Two Line Element Set (TLE):
1 39107U 86019VV  24109.32289473  .00003121  00000-0  16502-2 0  9991
2 39107  98.7244 148.6447 0155977  87.6319 274.2699 14.08399919977384
Source of the keplerian elements: AFSPC